SCP
0 0 0 0 0 0 0 0 0 0 0 0 0 0 0 0 0 0 0 0 0 0
0 0 0 0 0 0 0 0 0 0 0 0 0 0 0 0 0 0 0 0 0 0
0 0 0 0 0 0 0 0 0 0 0 0 0 0 0 0 0 0 0 0 0 0
0 0 0 0 0 0 0 0 0 0 0 0 0 0 0 0 0 0 0 0 0 0
0 0 0 0 0 0 0 0 0 0 0 0 0 0 0 0 0 0 0 0 0 0
0 0 0 0 0 0 0 0 0 0 0 0 0 0 0 0 0 0 0 0 0 0
0 0 0 0 0 0 0 0 0 0 0 0 0 0 0 0 0 0 0 0 0 0
0 0 0 0 0 0 0 0 0 0 0 0 0 0 0 0 0 0 0 0 0 0
0 0 0 0 0 0 0 0 0 0 0 0 0 0 0 0 0 0 0 0 0 0
0 0 0 0 0 0 0 0 0 0 0 0 0 0 0 0 0 0 0 0 0 0
0 0 0 0 0 0 0 0 0 0 0 0 0 0 0 0 0 0 0 0 0 0
0 0 0 0 0 0 0 0 0 0 0 0 0 0 0 0 0 0 0 0 0 0
0 0 0 0 0 0 0 0 0 0 0 0 0 0 0 0 0 0 0 0 0 0
0 0 0 0 0 0 0 0 0 0 0 0 0 0 0 0 0 0 0 0 0 0
Wind_Speed_500mb
33 32 29 28 26 24 22 21 19 18 19 20 21 22 23 25 27 29 30 32 33 34
34 30 27 26 24 23 24 24 22 22 23 23 23 24 24 26 27 29 31 32 33 33
32 31 30 28 28 28 29 29 29 29 27 27 27 28 28 28 29 30 32 32 32 32
35 34 32 31 31 32 33 34 34 34 33 33 32 32 32 32 31 32 32 31 29 29
42 42 39 36 35 35 37 38 37 37 37 37 36 36 35 35 35 34 33 31 28 26
46 46 44 42 40 39 39 39 40 40 39 39 39 39 38 37 36 35 34 32 29 28
49 48 47 46 45 42 41 42 44 44 43 43 42 42 41 38 36 34 32 30 29 28
49 49 50 50 48 46 46 47 47 47 47 47 47 45 42 39 36 34 33 31 30 29
54 55 55 54 54 53 51 50 50 49 47 46 46 46 44 40 37 36 35 34 32 32
59 63 62 60 60 58 56 54 52 51 50 48 47 47 44 41 39 39 37 35 34 33
57 62 64 66 65 62 59 56 52 50 49 48 48 49 42 38 38 39 38 36 33 29
51 57 60 65 64 63 59 57 54 52 50 48 45 45 39 35 36 38 34 31 28 26
46 48 50 52 56 58 58 57 55 54 51 48 46 49 40 37 36 34 30 29 27 27
43 41 42 45 52 56 58 57 56 52 49 46 44 45 41 35 37 34 29 29 32 30
Wind_Direction_500mb
234 227 222 219 217 219 221 221 229 244 258 268 275 281 286 290 292 295 295 293 288 284
225 222 218 220 223 228 232 237 249 257 263 267 273 281 286 291 295 297 297 296 293 290
223 218 217 222 230 238 244 249 258 261 262 267 274 279 283 288 293 297 299 298 296 293
229 228 229 234 239 244 248 254 259 260 264 267 271 276 281 285 289 291 291 291 291 288
232 233 236 241 245 250 253 256 258 262 266 269 273 276 279 281 283 284 284 284 282 280
239 240 242 246 250 254 259 263 264 264 267 270 272 274 276 277 277 276 274 272 270 266
246 248 250 252 254 258 261 263 265 267 267 267 268 269 267 266 266 266 266 263 260 257
250 251 251 253 257 259 261 262 262 263 264 263 262 262 263 264 264 263 259 255 254 257
253 253 254 254 256 258 260 261 261 260 260 260 260 259 261 260 258 257 255 254 256 260
252 253 254 255 255 256 257 258 259 260 260 260 259 260 262 261 258 254 253 254 257 260
251 253 252 251 252 253 253 255 257 259 258 258 257 258 255 252 250 246 244 245 251 258
254 252 250 250 252 252 253 254 254 252 248 247 247 251 247 245 241 242 244 246 250 255
259 258 256 254 251 250 248 247 246 245 244 242 241 248 242 242 243 243 245 247 254 262
258 258 256 251 246 245 244 244 243 244 243 241 240 244 245 239 242 239 235 253 265 270
Wind_Speed_850mb
33 32 29 28 26 24 22 21 19 18 19 20 21 22 23 25 27 29 30 32 33 34
34 30 27 26 24 23 24 24 22 22 23 23 23 24 24 26 27 29 31 32 33 33
32 31 30 28 28 28 29 29 29 29 27 27 27 28 28 28 29 30 32 32 32 32
35 34 32 31 31 32 33 34 34 34 33 33 32 32 32 32 31 32 32 31 29 29
42 42 39 36 35 35 37 38 37 37 37 37 36 36 35 35 35 34 33 31 28 26
46 46 44 42 40 39 39 39 40 40 39 39 39 39 38 37 36 35 34 32 29 28
49 48 47 46 45 42 41 42 44 44 43 43 42 42 41 38 36 34 32 30 29 28
49 49 50 50 48 46 46 47 47 47 47 47 47 45 42 39 36 34 33 31 30 29
54 55 55 54 54 53 51 50 50 49 47 46 46 46 44 40 37 36 35 34 32 32
59 63 62 60 60 58 56 54 52 51 50 48 47 47 44 41 39 39 37 35 34 33
57 62 64 66 65 62 59 56 52 50 49 48 48 49 42 38 38 39 38 36 33 29
51 57 60 65 64 63 59 57 54 52 50 48 45 45 39 35 36 38 34 31 28 26
46 48 50 52 56 58 58 57 55 54 51 48 46 49 40 37 36 34 30 29 27 27
43 41 42 45 52 56 58 57 56 52 49 46 44 45 41 35 37 34 29 29 32 30
Wind_Direction_850mb
234 227 222 219 217 219 221 221 229 244 258 268 275 281 286 290 292 295 295 293 288 284
225 222 218 220 223 228 232 237 249 257 263 267 273 281 286 291 295 297 297 296 293 290
223 218 217 222 230 238 244 249 258 261 262 267 274 279 283 288 293 297 299 298 296 293
229 228 229 234 239 244 248 254 259 260 264 267 271 276 281 285 289 291 291 291 291 288
232 233 236 241 245 250 253 256 258 262 266 269 273 276 279 281 283 284 284 284 282 280
239 240 242 246 250 254 259 263 264 264 267 270 272 274 276 277 277 276 274 272 270 266
246 248 250 252 254 258 261 263 265 267 267 267 268 269 267 266 266 266 266 263 260 257
250 251 251 253 257 259 261 262 262 263 264 263 262 262 263 264 264 263 259 255 254 257
253 253 254 254 256 258 260 261 261 260 260 260 260 259 261 260 258 257 255 254 256 260
252 253 254 255 255 256 257 258 259 260 260 260 259 260 262 261 258 254 253 254 257 260
251 253 252 251 252 253 253 255 257 259 258 258 257 258 255 252 250 246 244 245 251 258
254 252 250 250 252 252 253 254 254 252 248 247 247 251 247 245 241 242 244 246 250 255
259 258 256 254 251 250 248 247 246 245 244 242 241 248 242 242 243 243 245 247 254 262
258 258 256 251 246 245 244 244 243 244 243 241 240 244 245 239 242 239 235 253 265 270